Location: Charbonni�res
(45.9952°N, 2.9982°E)
Time: 17:10:03
(UTC+00:00)

ATLAS 2AS CENTAUR R/B - Pass Details

Date: 29 November 2020
Orbit: 943 x 1268 km, 63.7° (Epoch: 21 January)

Event Time Altitude Azimuth Distance (km) Brightness Sun altitude
Exits shadow 04:15:37 27° 202° (SSW) 2,222 4.1 -29.2°
Maximum altitude 04:20:22 74° 124° (ESE) 1,316 3.1 -28.3°
Drops below altitude 10° 04:28:13 10° 41° (NE) 3,224 5.6 -27.0°
Sets 04:30:58 0° 40° (NE) 4,166 6.3 -26.5°
